Theta_e
298 298 298 298 298 297 294 290 286 295 299 288 287 283 283 285 286 289 288 290 289 287 288 288 289 289 291 293 296 292 296 293 288 291 296 298 297 294 294 289 288 292 291 292
298 298 298 298 297 297 291 285 287 294 295 281 281 283 282 284 283 285 284 284 285 286 285 284 289 290 294 290 292 291 294 291 285 288 293 296 293 295 296 296 295 290 288 291
298 297 297 297 297 296 292 286 280 285 286 284 280 277 279 279 284 283 283 283 285 283 283 287 284 286 289 289 290 291 294 292 289 285 289 293 290 293 295 295 291 291 291 293
297 297 297 297 296 295 292 286 280 281 278 279 279 279 278 277 276 281 283 282 280 278 278 280 282 283 284 287 288 289 289 286 291 292 293 293 292 292 293 292 294 291 294 293
297 297 297 296 295 294 291 284 282 284 281 280 278 278 276 275 276 276 276 276 278 278 276 278 277 280 280 281 285 284 286 283 288 287 291 292 290 292 293 294 294 295 295 295
297 297 296 296 295 294 290 291 289 285 279 278 277 278 276 276 278 278 279 278 277 276 278 281 282 283 282 282 281 281 281 283 284 282 290 290 286 291 292 293 295 295 292 298
297 297 296 296 294 294 292 289 288 282 277 278 277 278 278 277 278 277 279 280 278 281 286 285 284 283 282 282 283 284 281 281 282 281 286 279 291 297 296 294 295 297 298 299
297 296 296 296 295 294 294 291 287 284 277 278 278 279 279 279 280 279 279 281 283 285 282 277 275 278 279 281 283 283 284 282 279 278 281 287 291 294 294 293 293 298 297 299
296 296 296 296 296 295 295 294 294 286 280 278 280 279 279 277 277 278 280 284 286 284 279 275 269 270 275 275 280 287 285 284 282 281 277 277 290 296 299 298 289 299 300 299
296 296 296 296 296 296 296 292 295 288 280 283 282 279 278 281 280 277 279 280 280 283 276 272 271 271 276 272 275 280 282 280 277 280 279 285 294 297 299 287 291 301 301 301
296 296 296 296 296 296 296 292 295 289 283 284 285 284 281 281 281 277 280 278 279 278 274 273 274 273 276 274 277 276 276 279 277 280 279 277 295 296 291 293 299 296 299 302
295 295 295 295 295 295 295 289 294 294 285 285 289 288 288 286 285 282 283 279 278 279 276 276 276 273 274 273 270 280 276 279 275 277 284 293 298 294 295 293 292 293 296 297
295 295 295 295 295 295 294 292 293 290 285 284 285 283 288 290 290 290 279 282 284 282 284 279 277 272 276 270 272 275 279 282 277 278 286 286 287 289 294 291 290 292 296 296
294 295 295 295 295 295 295 291 294 289 285 278 280 289 286 290 290 290 289 286 287 285 284 280 277 274 278 273 275 275 277 279 277 277 280 282 286 292 291 288 289 290 294 296
294 294 295 294 295 295 295 294 293 293 284 278 280 284 286 288 288 287 288 286 285 283 279 277 276 278 278 278 277 275 278 277 275 275 281 282 283 286 287 286 286 288 291 294
292 292 291 292 293 292 290 283 290 292 290 280 274 284 283 285 287 286 285 286 285 283 280 279 280 282 279 274 273 278 280 281 282 280 283 283 284 285 285 285 286 289 292 291
291 291 291 291 291 292 284 282 288 291 291 279 275 276 283 285 285 284 284 285 283 282 280 278 280 280 280 276 272 278 280 281 282 284 283 281 283 283 285 287 289 290 289 291
290 290 290 291 291 290 286 290 291 291 284 282 274 274 277 284 279 279 285 281 282 281 280 281 278 280 279 271 278 279 281 281 282 282 283 283 285 284 284 286 287 287 288 291
289 289 290 289 287 283 284 290 290 292 284 275 276 272 271 284 279 280 281 281 275 281 277 278 278 276 272 276 278 279 281 281 281 283 283 284 283 283 284 285 285 287 289 291
289 288 283 278 285 288 287 285 281 281 281 280 275 278 274 279 278 277 276 279 275 272 276 280 275 274 279 281 282 283 283 284 284 281 281 282 282 283 284 284 286 288 289 290
285 280 279 286 286 284 280 275 274 276 273 278 277 277 275 281 274 274 278 274 275 269 273 274 273 273 278 282 283 284 284 285 285 285 285 284 284 284 285 286 288 289 289 290
284 283 285 284 280 277 272 271 273 272 270 276 276 277 278 279 281 276 276 272 273 268 277 273 269 275 279 282 282 284 285 285 284 285 284 285 286 286 286 287 288 289 290 293
285 280 277 275 275 268 267 265 268 270 275 277 277 275 278 279 280 276 274 269 269 276 270 268 272 278 280 282 284 286 287 285 285 285 286 286 286 287 288 287 288 289 292 294
276 273 269 270 268 270 271 271 272 276 277 277 277 276 276 278 274 274 269 272 273 268 267 269 276 282 284 286 288 289 289 287 286 286 287 287 287 287 288 288 290 291 291 295
274 274 267 269 274 275 276 277 276 278 279 278 276 276 276 274 272 272 271 270 268 271 271 277 281 281 283 284 285 288 290 291 289 288 287 287 287 287 287 289 292 292 293 296
275 274 271 274 273 273 275 276 275 278 278 278 277 273 270 270 271 269 269 269 269 274 280 281 281 281 283 285 286 287 291 292 292 290 289 289 288 288 288 289 291 292 294 293
272 272 276 275 274 274 275 276 276 280 276 272 273 268 268 273 269 269 273 273 277 279 279 279 280 281 285 285 287 288 292 293 292 290 290 289 289 289 288 287 289 292 296 297
Wind_Speed
20 20 21 22 24 28 14 6 3 13 14 5 4 4 5 7 9 9 6 7 10 8 9 10 7 5 10 18 14 8 11 10 17 21 15 15 22 25 25 15 26 20 18 15
18 19 19 20 20 22 10 6 5 8 10 5 6 6 2 6 11 10 8 9 7 10 8 8 9 7 8 21 15 14 10 9 16 16 20 16 16 20 22 25 19 22 18 19
17 17 17 17 17 18 7 5 5 5 7 6 6 7 5 7 5 3 9 6 3 12 7 3 9 12 7 21 12 13 10 10 14 16 16 15 19 21 23 21 17 21 21 21
16 15 15 14 14 14 6 5 4 4 5 5 8 7 5 8 7 6 7 3 10 10 7 15 11 7 20 10 6 12 10 10 15 17 22 21 16 20 23 23 28 24 25 27
15 14 14 13 10 9 3 3 4 3 5 7 7 4 5 6 8 8 9 11 13 12 13 15 21 17 14 12 6 14 11 7 15 18 19 21 23 23 20 26 28 26 29 25
15 14 11 11 8 3 2 1 1 4 3 6 6 4 6 10 11 5 6 12 15 16 15 15 19 20 20 21 22 17 11 7 9 12 15 14 22 26 26 25 23 24 25 23
16 13 12 11 7 1 1 2 3 4 6 7 8 12 14 13 12 13 14 13 15 12 16 19 21 23 24 25 26 20 15 13 7 10 12 17 20 18 25 26 25 24 21 14
17 14 14 12 11 4 4 3 3 3 7 10 13 14 13 13 14 15 15 15 13 11 15 13 12 8 13 24 28 26 26 18 11 9 13 19 18 19 19 24 27 23 23 19
19 16 14 15 14 14 5 6 6 3 6 9 9 14 16 15 14 15 16 11 10 12 10 8 11 7 11 7 6 23 25 23 15 11 15 18 15 22 6 9 18 17 22 19
19 18 16 16 16 17 9 4 10 5 7 11 12 10 13 12 13 11 15 13 8 10 7 9 12 15 15 9 12 4 10 15 21 19 16 16 10 12 7 15 7 12 17 19
20 18 18 17 18 17 11 6 9 6 8 13 18 19 18 13 11 13 13 8 9 7 8 6 6 7 6 10 18 22 17 6 13 18 21 25 9 11 14 14 14 22 19 9
22 20 19 19 19 19 15 7 9 10 10 11 17 20 23 25 26 18 17 15 15 4 6 6 5 8 8 13 12 14 13 1 7 7 10 11 12 13 8 15 16 21 18 19
22 22 23 21 21 21 18 10 8 4 6 13 15 14 18 18 22 23 17 14 17 20 15 11 10 13 9 12 13 17 22 17 12 13 11 10 24 22 14 15 21 21 16 18
23 25 24 24 24 23 21 9 8 5 5 10 15 14 20 23 21 23 22 23 20 18 12 12 11 14 12 14 17 20 16 20 18 24 29 29 25 15 9 20 24 24 20 18
25 24 24 28 23 28 15 9 8 11 8 12 17 22 21 17 16 20 23 21 22 14 14 10 15 16 18 16 18 20 17 26 19 25 21 22 27 29 32 30 27 27 24 21
18 15 15 14 15 11 5 5 10 13 11 7 12 12 21 22 22 24 25 19 18 15 11 13 15 25 18 16 24 30 27 27 29 33 25 27 33 33 39 31 28 26 21 23
22 23 21 19 18 10 7 5 2 4 3 5 7 4 8 7 6 11 14 19 10 11 13 16 18 18 17 20 31 24 28 28 29 32 28 33 31 30 30 27 24 26 28 23
22 21 22 22 22 19 14 12 21 15 7 6 8 14 15 13 12 11 8 10 12 9 13 15 15 16 19 27 37 30 33 33 34 33 30 34 31 33 34 30 26 26 26 22
20 20 21 14 9 8 11 19 19 9 9 6 7 8 10 2 9 7 6 7 10 10 13 17 15 18 22 32 39 35 33 34 35 33 34 36 34 34 34 31 30 27 23 20
19 12 5 5 5 4 2 4 5 7 7 6 8 11 17 12 12 11 5 7 10 13 14 15 19 26 37 37 36 33 32 34 33 34 33 32 31 30 31 32 27 25 24 19
3 4 5 2 2 3 3 5 6 6 6 6 9 15 15 12 12 12 9 7 9 16 15 20 20 28 31 32 34 35 37 36 35 35 33 30 31 27 25 27 27 24 24 22
5 4 3 2 5 6 7 6 5 7 10 7 9 9 10 8 6 7 5 10 7 11 10 16 24 26 33 28 31 32 32 35 37 37 36 34 33 29 27 25 25 25 23 19
4 5 6 6 6 12 8 11 9 8 10 9 6 7 4 4 6 6 5 8 9 9 11 18 19 21 20 21 21 27 27 30 32 34 33 33 33 30 28 26 25 23 20 18
5 6 10 8 7 7 9 11 10 9 6 10 6 6 4 4 5 5 7 9 9 11 17 24 17 17 20 18 19 25 27 28 30 32 30 31 30 27 28 25 21 18 17 16
6 6 7 7 10 11 9 7 7 8 8 8 8 9 7 7 6 5 7 8 10 8 13 13 12 24 26 26 25 25 24 21 23 28 28 27 26 25 26 24 21 22 17 17
6 8 8 7 11 10 10 11 12 10 8 9 7 6 6 8 7 10 12 13 17 16 12 13 19 27 30 29 29 27 23 19 17 21 23 22 23 24 23 22 22 19 20 15
6 6 8 11 11 11 12 13 12 11 9 10 8 7 8 6 11 22 14 19 17 15 17 18 24 28 27 32 32 25 19 13 9 13 17 20 20 20 19 22 22 21 19 16
Wind_Direction
346 346 347 353 353 349 350 328 14 356 329 48 26 35 357 339 341 356 326 303 323 321 318 294 284 309 21 0 344 303 268 238 237 240 250 236 233 215 221 219 223 240 256 247
340 342 347 355 357 358 336 0 327 12 353 50 29 344 345 352 358 12 8 353 358 350 288 296 267 326 36 7 352 354 347 234 243 241 241 224 237 234 227 220 240 244 233 238
334 338 347 354 359 355 337 346 348 20 32 33 6 353 339 346 29 15 342 6 15 338 299 200 295 306 336 339 350 335 301 257 254 238 242 222 217 234 229 231 228 240 246 250
326 330 337 353 4 352 315 5 40 4 354 10 354 351 326 331 0 337 332 192 22 352 297 314 272 331 321 298 356 359 6 280 273 276 276 273 254 228 230 230 235 229 239 247
314 319 329 339 16 330 1 6 341 332 308 311 334 354 355 357 350 318 313 307 331 307 287 284 294 306 306 295 309 341 336 283 311 283 262 254 257 252 248 227 235 238 242 247
309 311 315 320 356 335 334 115 187 279 332 308 311 335 326 324 319 285 325 327 312 304 305 320 302 293 278 271 279 288 279 280 314 273 268 263 242 234 242 242 245 242 237 239
306 300 296 297 308 283 236 249 287 246 286 282 284 290 298 298 301 289 297 301 302 322 318 297 279 254 251 251 251 242 247 252 262 282 286 238 241 233 236 246 252 243 251 255
305 296 284 281 280 222 242 164 223 258 276 290 284 278 280 272 273 268 279 295 292 310 302 295 311 274 254 238 236 231 222 229 246 249 252 271 260 227 242 235 245 243 246 236
303 291 277 272 267 265 230 226 222 249 282 265 320 291 286 287 287 286 279 259 283 291 282 278 258 268 314 273 305 216 220 215 219 220 234 241 251 246 253 270 254 246 234 220
295 292 280 267 265 260 257 243 210 240 255 263 266 283 303 291 272 267 281 285 271 274 261 259 257 260 264 265 258 261 195 196 221 220 237 260 261 296 252 207 269 255 228 222
290 289 281 271 263 260 253 256 208 230 266 269 266 272 274 263 249 264 271 275 232 257 249 257 261 266 273 280 266 273 277 245 206 231 227 238 222 250 248 6 358 11 2 326
286 285 279 271 263 255 248 249 234 230 245 268 279 274 264 248 253 261 257 253 260 242 253 248 264 264 284 289 274 289 251 265 316 299 229 238 62 18 52 19 4 358 356 347
282 280 281 270 263 252 243 246 248 232 245 265 248 254 266 252 245 246 251 250 247 251 248 260 262 259 260 259 258 264 271 288 264 306 261 323 322 306 280 5 350 342 341 329
284 282 279 274 267 249 241 238 240 233 271 271 283 295 269 245 245 242 243 247 253 254 257 245 245 251 243 255 267 263 266 285 273 276 278 289 276 302 349 330 329 327 326 322
287 284 289 283 276 270 237 241 243 244 238 279 282 283 255 250 257 255 238 231 240 242 240 233 240 245 252 254 263 254 242 255 262 267 271 292 287 292 295 303 310 311 313 316
283 270 279 284 266 257 278 246 218 226 234 262 271 264 251 251 249 241 245 235 227 233 239 241 246 256 259 252 249 250 248 247 253 265 280 277 281 285 286 291 290 288 294 307
282 280 280 278 269 255 235 246 42 193 151 261 268 233 201 224 263 249 241 245 228 233 234 239 250 246 242 246 250 253 250 252 254 259 269 269 266 271 278 273 286 290 292 287
281 279 274 274 268 264 256 249 248 230 233 225 249 258 260 246 258 258 207 233 237 231 242 244 245 246 243 248 254 253 255 258 258 257 258 268 271 266 270 274 271 273 273 284
288 287 280 283 263 251 253 248 244 230 230 255 246 255 260 221 268 289 254 235 242 239 241 241 244 246 239 243 247 243 241 244 252 247 246 253 257 260 260 258 266 262 264 272
285 287 247 248 207 243 210 228 218 207 208 235 256 265 261 258 259 259 244 217 239 255 250 249 243 252 255 254 250 251 247 246 247 248 245 246 250 251 255 254 254 250 260 268
253 237 235 280 44 232 227 225 217 207 227 216 236 239 255 240 238 245 241 253 256 263 257 250 250 257 252 256 247 246 246 245 243 243 250 251 250 250 247 246 243 243 251 258
242 288 317 226 216 208 227 210 206 227 239 218 234 236 239 248 227 240 241 254 244 255 253 249 257 256 264 265 261 252 243 238 237 238 242 241 240 237 238 243 241 239 241 246
261 227 230 204 183 222 227 218 226 239 225 236 230 243 225 209 222 237 248 244 246 261 247 253 257 269 270 267 272 266 250 234 233 234 233 233 233 233 230 232 237 238 236 239
240 230 218 211 200 223 222 241 242 240 240 255 262 269 241 233 244 241 248 253 244 242 249 256 275 311 313 301 302 306 260 235 221 223 222 224 224 224 227 229 229 228 232 235
247 224 238 218 233 227 235 247 261 262 268 267 282 280 252 257 251 235 242 237 233 245 259 260 333 328 316 317 317 312 290 255 223 215 217 213 217 218 222 224 226 228 231 229
234 230 238 252 244 242 247 247 247 251 263 264 261 260 259 247 237 221 239 257 260 282 311 326 321 320 315 315 316 314 303 278 250 214 208 201 206 212 215 218 223 225 229 227
237 232 240 255 258 255 247 243 247 261 237 243 248 243 242 283 255 248 264 270 287 309 312 308 304 303 306 314 311 311 309 285 244 203 197 200 200 201 206 214 220 222 221 220